Huntsville Madison, AL

5:20 AM CDT on August 20, 2019 (GMT -0500)
Huntsville Madison

Weather History for KMDQ - July, 2019

Change the Weather History Date:

Monday, July 22, 2019

  Actual Average (KHSV) Record (KHSV)
Temperature  
Mean Temperature 80 °F -  
Max Temperature 88 °F 89 °F 103 °F (1952)
Min Temperature 71 °F 70 °F 49 °F (1944)
Cooling Degree Days 14    
Growing Degree Days 30 (Base 50)    
Moisture  
Dew Point 73 °F    
Average Humidity 84    
Maximum Humidity 98    
Minimum Humidity 59    
Precipitation  
Precipitation 0.02 in - - ()
Sea Level Pressure  
Sea Level Pressure 29.97 in    
Wind  
Wind Speed 5 mph (SSW)    
Max Wind Speed 15 mph    
Max Gust Speed 23 mph    
Visibility 10 miles    
Events Rain , Thunderstorm    
Averages and records for this station are not official NWS values.
T = Trace of Precipitation, MM = Missing Value Source: NWS Daily Summary

Daily Weather History Graph

Daily Weather History Graph

Search for Another Location

Airport or City:

Astronomy

Jul. 22, 2019 Rise Set
Actual Time 5:48 AM CDT 7:56 PM CDT
Civil Twilight 5:20 AM CDT 8:24 PM CDT
Nautical Twilight 4:45 AM CDT 8:59 PM CDT
Astronomical Twilight 4:07 AM CDT 9:36 PM CDT
Moon 11:29 PM CDT (7/22) 10:53 AM CDT (7/22)
Length of Visible Light 15h 04m
Length of Day
14h 08m
Waning Gibbous, 72% of the Moon is Illuminated
Jul 22
Waning Gibbous
Jul 24
Last Quarter
Jul 31
New
Aug 7
First Quarter
Aug 15
Full

Hourly Weather History & Observations

Time (CDT) Temp. Heat Index Dew Point Humidity Pressure Visibility Wind Dir Wind Speed Gust Speed Precip Events Conditions
12:15 AM 74.8 °F - 73.4 °F 95% 30.01 in 10.0 mi ESE 3.5 mph - N/A   Mostly Cloudy
12:35 AM 75.2 °F - 73.6 °F 95% 30.01 in 10.0 mi SSE 3.5 mph - N/A   Mostly Cloudy
12:55 AM 74.5 °F - 73.4 °F 96% 30.02 in 10.0 mi NE 3.5 mph - N/A   Mostly Cloudy
1:15 AM 74.5 °F - 73.6 °F 97% 30.01 in 10.0 mi Calm Calm - N/A   Mostly Cloudy
1:35 AM 74.7 °F - 73.4 °F 96% 30.00 in 10.0 mi Calm Calm - N/A   Scattered Clouds
1:55 AM 74.7 °F - 73.8 °F 97% 29.99 in 10.0 mi SSW 3.5 mph - N/A   Mostly Cloudy
2:15 AM 74.7 °F - 73.6 °F 96% 29.99 in 10.0 mi Calm Calm - N/A   Overcast
2:35 AM 74.5 °F - 73.4 °F 96% 29.99 in 10.0 mi Calm Calm - N/A   Overcast
2:55 AM 74.3 °F - 73.4 °F 97% 29.98 in 10.0 mi SSE 3.5 mph - N/A   Overcast
3:15 AM 73.9 °F - 73.0 °F 97% 29.98 in 7.0 mi Calm Calm - N/A   Mostly Cloudy
3:35 AM 73.9 °F - 73.2 °F 98% 29.99 in 7.0 mi Calm Calm - N/A   Overcast
3:55 AM 73.8 °F - 73.2 °F 98% 29.98 in 5.0 mi SE 3.5 mph - N/A   Mostly Cloudy
4:15 AM 73.9 °F - 73.2 °F 98% 29.99 in 7.0 mi Calm Calm - N/A   Mostly Cloudy
4:35 AM 74.1 °F - 73.0 °F 96% 29.98 in 10.0 mi Calm Calm - N/A   Mostly Cloudy
4:55 AM 74.5 °F - 72.9 °F 95% 29.98 in 10.0 mi South 3.5 mph - N/A   Clear
5:15 AM 73.6 °F - 72.5 °F 96% 29.99 in 10.0 mi SW 4.6 mph - N/A   Clear
5:35 AM 73.8 °F - 72.5 °F 96% 29.99 in 10.0 mi SSW 5.8 mph - N/A   Scattered Clouds
5:55 AM 74.7 °F - 72.5 °F 93% 29.99 in 10.0 mi South 5.8 mph - N/A   Scattered Clouds
6:15 AM 74.5 °F - 72.7 °F 94% 30.00 in 10.0 mi South 4.6 mph - 0.01 in   Clear
6:35 AM 74.5 °F - 72.9 °F 95% 30.01 in 10.0 mi SSW 4.6 mph - 0.01 in   Scattered Clouds
6:55 AM 75.0 °F - 73.2 °F 94% 30.02 in 10.0 mi SSW 6.9 mph - 0.01 in   Scattered Clouds
7:15 AM 75.7 °F - 73.6 °F 93% 30.02 in 10.0 mi SSW 6.9 mph - N/A   Mostly Cloudy
7:35 AM 75.9 °F - 73.4 °F 92% 30.02 in 10.0 mi SSW 6.9 mph - N/A   Overcast
7:55 AM 76.5 °F - 73.4 °F 90% 30.02 in 10.0 mi SSW 8.1 mph - N/A   Overcast
8:15 AM 76.6 °F - 73.6 °F 90% 30.03 in 10.0 mi SSW 8.1 mph - N/A   Overcast
8:35 AM 77.4 °F - 73.6 °F 88% 30.02 in 10.0 mi South 11.5 mph - N/A   Overcast
8:55 AM 77.7 °F - 73.6 °F 87% 30.02 in 10.0 mi SSW 11.5 mph - N/A   Overcast
9:15 AM 77.7 °F - 73.2 °F 86% 30.02 in 10.0 mi South 11.5 mph - N/A   Overcast
9:35 AM 78.1 °F - 73.6 °F 86% 30.02 in 10.0 mi SSW 11.5 mph - N/A   Overcast
9:55 AM 78.3 °F - 73.0 °F 84% 30.02 in 10.0 mi SSW 9.2 mph - N/A   Overcast
10:15 AM 79.2 °F - 73.6 °F 83% 30.02 in 10.0 mi WSW 8.1 mph - N/A   Overcast
10:35 AM 79.9 °F - 73.2 °F 80% 30.01 in 7.0 mi SSW 9.2 mph - N/A   Overcast
10:55 AM 81.3 °F 86.5 °F 73.4 °F 77% 30.01 in 10.0 mi SSW 11.5 mph - N/A   Overcast
11:15 AM 82.6 °F 88.6 °F 73.6 °F 74% 30.00 in 10.0 mi SW 10.4 mph - N/A   Overcast
11:35 AM 82.4 °F 87.9 °F 72.9 °F 73% 29.99 in 10.0 mi South 9.2 mph - N/A   Mostly Cloudy
11:55 AM 82.6 °F 88.1 °F 72.9 °F 72% 29.99 in 10.0 mi SSW 10.4 mph - N/A   Scattered Clouds
12:15 PM 83.1 °F 88.9 °F 72.9 °F 71% 29.99 in 10.0 mi SSW 10.4 mph - N/A   Clear
12:35 PM 84.9 °F 92.5 °F 74.1 °F 70% 29.99 in 10.0 mi SW 8.1 mph - N/A   Clear
12:55 PM 85.1 °F 92.6 °F 73.8 °F 69% 29.98 in 10.0 mi SW 10.4 mph - N/A   Scattered Clouds
1:15 PM 86.2 °F 93.0 °F 72.5 °F 64% 29.97 in 10.0 mi South 10.4 mph - N/A   Scattered Clouds
1:35 PM 86.4 °F 92.2 °F 71.6 °F 61% 29.96 in 10.0 mi South 11.5 mph 19.6 mph N/A   Mostly Cloudy
1:55 PM 87.3 °F 94.5 °F 72.9 °F 62% 29.95 in 10.0 mi SW 12.7 mph - N/A   Scattered Clouds
2:15 PM 88.0 °F 94.7 °F 72.0 °F 59% 29.95 in 10.0 mi SSW 15.0 mph - N/A   Scattered Clouds
2:35 PM 88.2 °F 95.0 °F 72.3 °F 59% 29.94 in 10.0 mi SW 15.0 mph - N/A   Scattered Clouds
2:55 PM 88.2 °F 95.5 °F 72.5 °F 60% 29.94 in 10.0 mi SW 11.5 mph - N/A   Scattered Clouds
3:15 PM 88.2 °F 95.5 °F 72.7 °F 60% 29.93 in 10.0 mi SSW 13.8 mph 17.3 mph N/A   Mostly Cloudy
3:35 PM 86.2 °F 92.6 °F 72.1 °F 63% 29.93 in 10.0 mi SW 10.4 mph 18.4 mph N/A   Mostly Cloudy
3:55 PM 86.5 °F 93.8 °F 72.9 °F 64% 29.92 in 10.0 mi WSW 6.9 mph - N/A   Overcast
4:15 PM 87.6 °F 95.2 °F 73.2 °F 62% 29.92 in 10.0 mi SW 11.5 mph - N/A   Mostly Cloudy
4:35 PM 86.0 °F 92.2 °F 72.1 °F 63% 29.91 in 10.0 mi WSW 10.4 mph - N/A   Scattered Clouds
4:55 PM 87.6 °F 95.2 °F 73.0 °F 62% 29.91 in 10.0 mi SW 9.2 mph - N/A   Scattered Clouds
5:15 PM 86.5 °F 93.8 °F 72.9 °F 64% 29.90 in 10.0 mi WSW 9.2 mph - 0.01 in   Scattered Clouds
5:35 PM 85.5 °F 92.2 °F 73.0 °F 66% 29.90 in 10.0 mi SW 9.2 mph - 0.01 in   Scattered Clouds
5:55 PM 84.2 °F 90.6 °F 73.2 °F 69% 29.90 in 10.0 mi WSW 5.8 mph - 0.01 in   Scattered Clouds
6:15 PM 83.5 °F 89.7 °F 73.2 °F 71% 29.91 in 10.0 mi SW 6.9 mph - N/A Thunderstorm Mostly Cloudy
6:35 PM 82.9 °F 89.1 °F 73.6 °F 73% 29.91 in 10.0 mi WSW 4.6 mph - N/A   Overcast
6:55 PM 80.8 °F 86.1 °F 74.5 °F 81% 29.91 in 10.0 mi SW 3.5 mph - N/A Rain Light Rain
7:15 PM 80.2 °F 85.4 °F 74.8 °F 84% 29.92 in 10.0 mi WNW 4.6 mph - N/A Thunderstorm Thunderstorm
7:35 PM 77.0 °F - 71.8 °F 84% 29.93 in 10.0 mi North 13.8 mph 23.0 mph N/A Thunderstorm Overcast
7:55 PM 73.2 °F - 70.3 °F 91% 29.95 in 3.0 mi North 11.5 mph 19.6 mph N/A Rain Heavy Rain
8:15 PM 72.1 °F - 70.9 °F 96% 29.95 in 10.0 mi East 4.6 mph - N/A Rain , Thunderstorm Light Thunderstorms and Rain
8:35 PM 71.4 °F - 70.3 °F 96% 29.96 in 10.0 mi NNE 5.8 mph - N/A   Overcast
8:55 PM 71.4 °F - 70.2 °F 96% 29.96 in 10.0 mi Calm Calm - N/A Rain Light Rain
9:15 PM 71.8 °F - 70.5 °F 96% 29.96 in 10.0 mi Calm Calm - N/A Rain Light Rain
9:35 PM 72.1 °F - 70.7 °F 95% 29.96 in 10.0 mi East 3.5 mph - N/A Rain Light Rain
9:55 PM 72.3 °F - 70.9 °F 95% 29.95 in 10.0 mi Calm Calm - N/A Rain Light Rain
10:15 PM 72.3 °F - 70.9 °F 95% 29.95 in 10.0 mi Calm Calm - N/A   Overcast
10:35 PM 72.3 °F - 71.1 °F 96% 29.95 in 10.0 mi WNW 3.5 mph - N/A   Overcast
10:55 PM 72.5 °F - 70.7 °F 94% 29.95 in 10.0 mi Calm Calm - N/A   Overcast
11:15 PM 72.9 °F - 71.1 °F 94% 29.94 in 10.0 mi Calm Calm - N/A   Overcast
11:35 PM 72.7 °F - 71.2 °F 95% 29.95 in 10.0 mi WSW 3.5 mph - N/A   Mostly Cloudy
11:55 PM 72.3 °F - 71.2 °F 96% 29.95 in 10.0 mi Calm Calm - N/A   Mostly Cloudy